Language: 


Des rapports , des résumés tant et plus, au choix de chacun....


Données statistiques de la station
Quotidien Rapport Février 4, 2018 Unités:  Anglais    Métrique   les deux
« Précédent Jour
Suivant Jour »
Quotidien Hebdomadaire Mensuel Annuel Actuel
  Haut: Bas: Moyen:
Température: TemperatureC °F 0.1 °F 2.5 °F
Pt de rosée: DewpointC °F -3.0 °F -0.3 °F
Humidité: Humidity % 57 % 80 %
Vitesse du vent: WindSpeedKMH mph 0.0 mph 13.5 mph
Rafales: WindSpeedGustKMH mph - -
Vent:- - ENE
Pression: PressurehPa in 1008.0 in -
Précipitation: 0.3 in    
Historical Graphs
 
 
Données statistiques pour Février 4, 2018
Heure Température Point de rosée Pression Vent Vitesse du vent Refales Humidité Pluie (taux horaire)
TemperatureC °F DewpointC °F PressurehPa in Calm     Humidity % HourlyPrecipMM in
00:00 1.9 °F 2.0 °F 1008.0 in Calm   5.0 mph 98 % 0.0 in
00:05 1.8 °F 2.0 °F 1008.0 in Calm     98 % 0.0 in
00:10 1.7 °F 2.0 °F 1008.0 in Calm   3.2 mph 98 % 0.0 in
00:15 1.7 °F 2.0 °F 1009.0 in Calm   3.2 mph 98 % 0.0 in
00:20 1.7 °F 2.0 °F 1009.0 in North 4.3 mph 6.4 mph 98 % 0.0 in
00:25 1.7 °F 2.0 °F 1009.0 in Calm   6.4 mph 98 % 0.0 in
00:30 1.8 °F 2.0 °F 1009.0 in NNE 4.0 mph 6.4 mph 98 % 0.0 in
00:35 1.9 °F 2.0 °F 1009.0 in NE 5.0 mph 7.9 mph 98 % 0.0 in
00:40 2.0 °F 2.0 °F 1009.0 in North 4.7 mph 9.3 mph 98 % 0.0 in
00:45 2.0 °F 2.0 °F 1009.0 in North 6.1 mph 9.3 mph 98 % 0.0 in
00:47 2.0 °F 2.0 °F 1009.0 in NNE 7.6 mph 9.3 mph 98 % 0.0 in
00:52 2.1 °F 2.0 °F 1009.0 in North 6.4 mph 7.6 mph 98 % 0.0 in
00:57 2.1 °F 2.0 °F 1009.0 in North 3.2 mph 7.6 mph 98 % 0.0 in
01:02 2.3 °F 3.0 °F 1009.0 in North 7.6 mph 7.9 mph 98 % 0.0 in
01:07 2.4 °F 3.0 °F 1009.0 in Calm   11.9 mph 98 % 0.0 in
01:12 2.6 °F 3.0 °F 1009.0 in Calm   11.9 mph 98 % 0.0 in
01:17 2.6 °F 3.0 °F 1009.0 in NE 2.1 mph 9.3 mph 98 % 0.0 in
01:22 2.7 °F 3.0 °F 1009.0 in NW 6.4 mph 6.9 mph 98 % 0.0 in
01:27 2.8 °F 3.0 °F 1009.0 in NNE 9.3 mph 10.1 mph 98 % 0.0 in
01:32 2.9 °F 3.0 °F 1010.0 in Calm   10.1 mph 98 % 0.0 in
01:37 2.9 °F 3.0 °F 1010.0 in NE 6.4 mph 9.3 mph 98 % 0.0 in
01:42 2.9 °F 3.0 °F 1010.0 in North 4.3 mph 9.3 mph 98 % 0.0 in
01:47 2.9 °F 3.0 °F 1010.0 in NNE 5.5 mph 9.7 mph 98 % 0.0 in
01:52 2.9 °F 3.0 °F 1010.0 in NNE 5.0 mph 9.7 mph 98 % 0.0 in
01:57 2.9 °F 3.0 °F 1010.0 in NNE 5.5 mph 9.7 mph 98 % 0.0 in
02:02 2.8 °F 3.0 °F 1010.0 in NE 10.1 mph 11.9 mph 98 % 0.0 in
02:07 2.8 °F 3.0 °F 1010.0 in NNE 11.9 mph 14.0 mph 98 % 0.0 in
02:13 2.8 °F 3.0 °F 1010.0 in NE 9.0 mph 14.0 mph 98 % 0.0 in
02:18 2.8 °F 3.0 °F 1011.1 in NE 10.5 mph 13.7 mph 98 % 0.0 in
02:23 3.0 °F 3.0 °F 1011.1 in NE 11.6 mph 14.0 mph 98 % 0.0 in
02:28 3.0 °F 3.0 °F 1011.1 in NE 9.3 mph 14.0 mph 98 % 0.0 in
02:33 3.0 °F 3.0 °F 1010.0 in NNE 11.9 mph 15.4 mph 98 % 0.0 in
02:38 3.0 °F 3.0 °F 1010.0 in NE 14.3 mph 19.8 mph 98 % 0.0 in
02:43 3.0 °F 3.0 °F 1010.0 in NE 16.3 mph 19.8 mph 98 % 0.0 in
02:48 3.0 °F 3.0 °F 1010.0 in NNE 10.5 mph 19.8 mph 98 % 0.0 in
02:53 3.0 °F 3.0 °F 1010.0 in NE 13.0 mph 16.3 mph 98 % 0.3 in
02:58 2.9 °F 3.0 °F 1010.0 in NE 13.0 mph 21.2 mph 98 % 0.3 in
03:03 2.9 °F 3.0 °F 1011.1 in NE 15.4 mph 21.2 mph 98 % 0.3 in
03:08 2.8 °F 3.0 °F 1011.1 in NE 12.2 mph 22.7 mph 98 % 0.3 in
03:13 2.8 °F 3.0 °F 1011.1 in NE 15.1 mph 22.7 mph 98 % 0.3 in
03:18 2.7 °F 3.0 °F 1011.1 in NE 13.0 mph 21.6 mph 98 % 0.3 in
03:23 2.6 °F 3.0 °F 1011.1 in NE 31.7 mph 31.7 mph 98 % 0.3 in
03:28 2.5 °F 3.0 °F 1011.1 in NNE 17.2 mph 31.7 mph 98 % 0.3 in
03:33 2.5 °F 3.0 °F 1011.1 in NNE 17.7 mph 24.8 mph 98 % 0.3 in
03:38 2.4 °F 3.0 °F 1011.1 in NNE 14.0 mph 22.7 mph 98 % 0.3 in
03:43 2.4 °F 3.0 °F 1011.1 in NE 14.3 mph 22.7 mph 98 % 0.3 in
03:48 2.3 °F 3.0 °F 1012.1 in NNE 24.5 mph 24.5 mph 98 % 0.3 in
03:53 2.3 °F 3.0 °F 1012.1 in NE 13.7 mph 24.8 mph 98 % 0.0 in
03:58 2.3 °F 3.0 °F 1012.1 in NNE 15.8 mph 24.8 mph 98 % 0.0 in
04:03 2.3 °F 3.0 °F 1013.1 in North 17.7 mph 23.3 mph 98 % 0.0 in
04:08 2.2 °F 2.0 °F 1013.1 in NE 14.0 mph 25.3 mph 98 % 0.0 in
04:13 2.1 °F 2.0 °F 1013.1 in NNE 24.5 mph 27.4 mph 97 % 0.0 in
04:18 2.1 °F 2.0 °F 1013.1 in ENE 16.9 mph 27.4 mph 96 % 0.0 in
04:23 2.1 °F 2.0 °F 1013.1 in NE 13.7 mph 24.5 mph 96 % 0.0 in
04:28 2.1 °F 2.0 °F 1012.1 in NE 20.9 mph 23.0 mph 95 % 0.0 in
04:34 2.1 °F 2.0 °F 1012.1 in NNE 13.0 mph 20.9 mph 95 % 0.0 in
04:39 2.0 °F 2.0 °F 1012.1 in NNE 15.8 mph 20.9 mph 95 % 0.0 in
04:44 2.0 °F 2.0 °F 1013.1 in North 13.7 mph 16.9 mph 95 % 0.0 in
04:49 2.0 °F 2.0 °F 1013.1 in NE 13.0 mph 17.2 mph 95 % 0.0 in
04:54 2.0 °F 2.0 °F 1013.1 in NE 17.2 mph 17.2 mph 95 % 0.0 in
04:59 1.9 °F 1.0 °F 1013.1 in NE 20.6 mph 27.0 mph 93 % 0.0 in
05:04 1.9 °F 1.0 °F 1013.1 in NE 16.9 mph 28.8 mph 91 % 0.0 in
05:09 1.9 °F 1.0 °F 1013.1 in NE 17.7 mph 28.8 mph 89 % 0.0 in
05:14 1.9 °F 0.0 °F 1014.1 in NE 16.3 mph 30.6 mph 88 % 0.0 in
05:19 1.8 °F 0.0 °F 1014.1 in NNE 28.5 mph 30.6 mph 86 % 0.0 in
05:24 1.8 °F 0.0 °F 1014.1 in NE 15.4 mph 28.5 mph 86 % 0.0 in
05:29 1.7 °F 0.0 °F 1014.1 in NNE 15.8 mph 25.3 mph 87 % 0.0 in
05:34 1.7 °F 0.0 °F 1014.1 in NE 16.6 mph 24.8 mph 87 % 0.0 in
05:39 1.7 °F 0.0 °F 1014.1 in NNE 16.3 mph 24.8 mph 87 % 0.0 in
05:44 1.7 °F 0.0 °F 1015.1 in NE 10.5 mph 23.0 mph 88 % 0.0 in
05:49 1.6 °F 0.0 °F 1015.1 in ENE 23.3 mph 23.8 mph 87 % 0.0 in
05:54 1.4 °F -1.0 °F 1015.1 in NE 19.5 mph 27.0 mph 85 % 0.0 in
05:59 1.3 °F -1.0 °F 1014.1 in NE 27.0 mph 35.6 mph 82 % 0.0 in
06:04 1.1 °F -2.0 °F 1014.1 in NE 20.1 mph 36.7 mph 79 % 0.0 in
06:09 1.0 °F -2.0 °F 1014.1 in NNE 16.3 mph 36.7 mph 81 % 0.0 in
06:14 1.0 °F -2.0 °F 1015.1 in NE 25.9 mph 33.8 mph 81 % 0.0 in
06:19 0.9 °F -2.0 °F 1015.1 in NE 20.1 mph 28.0 mph 80 % 0.0 in
06:24 0.7 °F -2.0 °F 1015.1 in NE 24.8 mph 28.0 mph 80 % 0.0 in
06:29 0.7 °F -2.0 °F 1015.1 in NNE 17.2 mph 27.4 mph 80 % 0.0 in
06:34 0.6 °F -2.0 °F 1015.1 in NE 16.6 mph 28.0 mph 80 % 0.0 in
06:39 0.5 °F -2.0 °F 1015.1 in NNE 20.9 mph 28.0 mph 81 % 0.0 in
06:45 0.4 °F -2.0 °F 1015.1 in NNE 16.6 mph 22.7 mph 80 % 0.0 in
06:50 0.4 °F -2.0 °F 1015.1 in NE 12.6 mph 23.8 mph 80 % 0.0 in
06:55 0.4 °F -2.0 °F 1015.1 in North 17.2 mph 23.8 mph 81 % 0.0 in
07:00 0.3 °F -2.0 °F 1016.1 in NNE 16.9 mph 20.1 mph 81 % 0.0 in
07:05 0.3 °F -2.0 °F 1016.1 in NE 12.2 mph 23.0 mph 81 % 0.0 in
07:10 0.3 °F -2.0 °F 1016.1 in NE 16.6 mph 23.0 mph 82 % 0.0 in
07:15 0.2 °F -2.0 °F 1016.1 in NNE 14.0 mph 19.8 mph 82 % 0.0 in
07:20 0.2 °F -2.0 °F 1016.1 in NE 13.7 mph 21.2 mph 82 % 0.0 in
07:25 0.1 °F -2.0 °F 1016.1 in NE 16.6 mph 21.2 mph 83 % 0.0 in
07:30 0.2 °F -2.0 °F 1016.8 in NE 11.6 mph 23.3 mph 83 % 0.0 in
07:35 0.1 °F -2.0 °F 1016.8 in NE 12.6 mph 23.3 mph 83 % 0.0 in
07:40 0.2 °F -2.0 °F 1016.8 in NE 13.7 mph 20.1 mph 83 % 0.0 in
07:45 0.3 °F -2.0 °F 1016.1 in NE 12.6 mph 21.9 mph 83 % 0.0 in
07:50 0.3 °F -2.0 °F 1016.1 in NE 15.8 mph 23.3 mph 83 % 0.0 in
07:55 0.4 °F -2.0 °F 1016.1 in NE 16.6 mph 23.3 mph 82 % 0.0 in
08:00 0.4 °F -2.0 °F 1016.8 in NE 17.7 mph 20.6 mph 82 % 0.0 in
08:05 0.4 °F -2.0 °F 1016.8 in NE 12.2 mph 17.7 mph 82 % 0.0 in
08:11 0.4 °F -2.0 °F 1016.8 in NE 8.7 mph 14.0 mph 82 % 0.0 in
08:16 0.3 °F -2.0 °F 1018.2 in NE 5.8 mph 13.0 mph 83 % 0.0 in
08:21 0.3 °F -2.0 °F 1018.2 in NNE 7.9 mph 12.6 mph 83 % 0.0 in
08:26 0.3 °F -2.0 °F 1018.2 in NE 9.0 mph 12.6 mph 84 % 0.0 in
08:31 0.3 °F -2.0 °F 1018.2 in Calm   11.6 mph 84 % 0.0 in
08:36 0.2 °F -2.0 °F 1018.2 in ENE 6.1 mph 9.0 mph 84 % 0.0 in
08:41 0.3 °F -1.0 °F 1018.2 in Calm   7.9 mph 85 % 0.0 in
08:46 0.3 °F -1.0 °F 1018.2 in NE 1.8 mph 8.7 mph 85 % 0.0 in
08:51 0.4 °F -1.0 °F 1018.2 in NE 7.9 mph 8.7 mph 87 % 0.0 in
08:56 0.4 °F -1.0 °F 1018.2 in NNE 8.7 mph 10.5 mph 87 % 0.0 in
09:01 0.5 °F -1.0 °F 1018.8 in NNE 7.9 mph 11.9 mph 87 % 0.0 in
09:06 0.6 °F -1.0 °F 1018.8 in NE 8.7 mph 13.0 mph 86 % 0.0 in
09:11 0.7 °F -1.0 °F 1018.8 in NNE 7.6 mph 13.0 mph 86 % 0.0 in
09:16 0.7 °F -1.0 °F 1018.8 in NE 9.7 mph 11.6 mph 86 % 0.0 in
09:21 0.8 °F -1.0 °F 1018.8 in NNE 8.7 mph 12.2 mph 86 % 0.0 in
09:26 0.9 °F -1.0 °F 1018.8 in NNE 7.6 mph 13.0 mph 86 % 0.0 in
09:31 0.9 °F -1.0 °F 1018.8 in NNE 7.9 mph 13.0 mph 86 % 0.0 in
09:36 1.0 °F -1.0 °F 1018.8 in NNE 5.8 mph 9.3 mph 86 % 0.0 in
09:42 1.0 °F -1.0 °F 1018.8 in NNE 6.9 mph 9.7 mph 86 % 0.0 in
09:47 1.0 °F -1.0 °F 1018.8 in NE 9.0 mph 9.7 mph 86 % 0.0 in
09:52 1.1 °F -1.0 °F 1018.8 in NE 13.0 mph 13.0 mph 86 % 0.0 in
09:57 1.2 °F -1.0 °F 1018.8 in NNE 12.2 mph 14.0 mph 85 % 0.0 in
10:02 1.3 °F -1.0 °F 1019.9 in NNE 10.5 mph 14.0 mph 85 % 0.0 in
10:07 1.3 °F -1.0 °F 1019.9 in NE 12.2 mph 16.3 mph 85 % 0.0 in
10:12 1.5 °F 0.0 °F 1019.9 in NE 14.0 mph 16.9 mph 85 % 0.0 in
10:17 1.7 °F -1.0 °F 1018.8 in North 11.9 mph 16.9 mph 84 % 0.0 in
10:22 1.9 °F 0.0 °F 1018.8 in NE 11.9 mph 14.0 mph 85 % 0.0 in
10:27 1.9 °F 0.0 °F 1018.8 in NE 12.2 mph 14.0 mph 84 % 0.0 in
10:32 2.0 °F 0.0 °F 1019.9 in NNE 10.8 mph 14.8 mph 83 % 0.0 in
10:37 2.0 °F 0.0 °F 1019.9 in NNE 13.7 mph 15.4 mph 82 % 0.0 in
10:42 2.1 °F 0.0 °F 1019.9 in NNE 11.9 mph 15.4 mph 83 % 0.0 in
10:47 2.1 °F 0.0 °F 1020.9 in NNE 11.9 mph 16.6 mph 82 % 0.0 in
10:52 2.3 °F 0.0 °F 1020.9 in NE 12.2 mph 16.6 mph 81 % 0.0 in
10:57 2.4 °F 0.0 °F 1020.9 in NNE 12.2 mph 17.2 mph 80 % 0.0 in
11:02 2.6 °F -1.0 °F 1019.9 in North 9.7 mph 17.2 mph 78 % 0.0 in
11:07 2.8 °F 0.0 °F 1019.9 in NE 11.9 mph 15.8 mph 78 % 0.0 in
11:12 2.8 °F 0.0 °F 1019.9 in NE 8.7 mph 14.0 mph 77 % 0.0 in
11:17 3.2 °F 0.0 °F 1020.9 in NNE 6.9 mph 13.0 mph 78 % 0.0 in
11:22 3.6 °F 0.0 °F 1020.9 in NE 6.4 mph 13.7 mph 76 % 0.0 in
11:27 3.8 °F 0.0 °F 1020.9 in ENE 13.7 mph 13.7 mph 76 % 0.0 in
11:32 3.8 °F -1.0 °F 1020.9 in ENE 12.6 mph 17.2 mph 72 % 0.0 in
11:37 4.0 °F 0.0 °F 1020.9 in NE 12.6 mph 17.2 mph 72 % 0.0 in
11:42 4.1 °F -1.0 °F 1020.9 in ENE 12.2 mph 17.7 mph 71 % 0.0 in
11:47 4.4 °F 0.0 °F 1020.9 in NE 13.0 mph 17.7 mph 71 % 0.0 in
11:52 4.4 °F -1.0 °F 1020.9 in NNE 13.7 mph 20.9 mph 69 % 0.0 in
11:57 4.5 °F -1.0 °F 1020.9 in NNE 16.3 mph 20.9 mph 67 % 0.0 in
12:03 4.5 °F -1.0 °F 1020.9 in NE 14.8 mph 23.8 mph 66 % 0.0 in
12:08 4.7 °F -1.0 °F 1020.9 in NNE 13.7 mph 23.8 mph 68 % 0.0 in
12:13 4.7 °F -1.0 °F 1020.9 in ENE 16.9 mph 23.3 mph 66 % 0.0 in
12:18 4.8 °F -1.0 °F 1020.9 in North 17.7 mph 23.3 mph 67 % 0.0 in
12:23 4.9 °F -1.0 °F 1020.9 in NE 12.6 mph 21.6 mph 65 % 0.0 in
12:28 5.0 °F -1.0 °F 1020.9 in ENE 17.2 mph 20.1 mph 65 % 0.0 in
12:33 5.1 °F -1.0 °F 1020.9 in NE 9.3 mph 19.5 mph 66 % 0.0 in
12:38 5.2 °F -1.0 °F 1020.9 in NE 16.6 mph 31.4 mph 63 % 0.0 in
12:43 5.3 °F -1.0 °F 1020.9 in NNE 19.8 mph 31.4 mph 62 % 0.0 in
12:48 5.7 °F -1.0 °F 1020.9 in North 16.6 mph 27.7 mph 63 % 0.0 in
12:53 5.8 °F -1.0 °F 1020.9 in NE 20.1 mph 28.5 mph 61 % 0.0 in
12:58 5.6 °F -1.0 °F 1020.9 in NE 20.6 mph 28.5 mph 62 % 0.0 in
13:03 5.5 °F -1.0 °F 1021.9 in ENE 24.8 mph 27.7 mph 62 % 0.0 in
13:08 5.7 °F -1.0 °F 1021.9 in NNE 27.7 mph 27.7 mph 61 % 0.0 in
13:13 5.8 °F -1.0 °F 1021.9 in NE 20.1 mph 28.0 mph 60 % 0.0 in
13:18 6.0 °F -1.0 °F 1020.9 in NNE 13.0 mph 28.0 mph 59 % 0.0 in
13:23 6.0 °F -1.0 °F 1020.9 in NE 20.9 mph 27.7 mph 59 % 0.0 in
13:28 6.2 °F -1.0 °F 1020.9 in NE 19.8 mph 27.7 mph 58 % 0.0 in
13:33 6.0 °F -1.0 °F 1020.9 in NNE 27.7 mph 27.7 mph 59 % 0.0 in
13:38 5.6 °F -1.0 °F 1020.9 in NE 14.0 mph 28.5 mph 59 % 0.0 in
13:43 5.4 °F -1.0 °F 1020.9 in NNE 22.4 mph 28.5 mph 60 % 0.0 in
13:48 5.7 °F -1.0 °F 1020.9 in NE 17.7 mph 25.6 mph 63 % 0.0 in
13:53 6.2 °F 0.0 °F 1020.9 in NE 17.7 mph 23.0 mph 64 % 0.0 in
13:58 6.0 °F -1.0 °F 1020.9 in NNW 16.3 mph 20.9 mph 62 % 0.0 in
14:03 5.7 °F -1.0 °F 1020.9 in NNE 20.9 mph 25.3 mph 62 % 0.0 in
14:08 5.6 °F 0.0 °F 1020.9 in NNE 19.8 mph 25.3 mph 65 % 0.0 in
14:13 5.3 °F -1.0 °F 1020.9 in NE 14.0 mph 35.2 mph 63 % 0.0 in
14:18 5.3 °F 0.0 °F 1020.9 in NE 32.3 mph 35.2 mph 65 % 0.0 in
14:23 5.7 °F 1.0 °F 1020.9 in NNE 30.9 mph 33.8 mph 69 % 0.0 in
14:29 5.4 °F 0.0 °F 1020.9 in NNE 20.9 mph 32.0 mph 69 % 0.0 in
14:34 5.5 °F 0.0 °F 1020.9 in NE 16.6 mph 32.0 mph 67 % 0.0 in
14:39 5.6 °F 0.0 °F 1020.9 in NNE 13.0 mph 30.6 mph 67 % 0.0 in
14:44 5.3 °F 0.0 °F 1020.9 in NE 38.5 mph 38.5 mph 68 % 0.0 in
14:49 5.1 °F 0.0 °F 1020.9 in North 31.7 mph 38.5 mph 68 % 0.0 in
14:54 5.0 °F -1.0 °F 1020.9 in NE 31.7 mph 39.3 mph 66 % 0.0 in
14:59 5.6 °F 1.0 °F 1020.9 in North 24.8 mph 39.3 mph 69 % 0.0 in
15:04 5.6 °F 0.0 °F 1020.9 in NNE 33.5 mph 33.5 mph 64 % 0.0 in
15:09 5.2 °F 0.0 °F 1020.9 in NNE 22.4 mph 34.3 mph 67 % 0.0 in
15:14 5.0 °F -1.0 °F 1020.9 in NNE 28.5 mph 35.6 mph 65 % 0.0 in
15:19 4.7 °F -1.0 °F 1020.9 in NNE 27.4 mph 36.4 mph 65 % 0.0 in
15:24 5.2 °F -1.0 °F 1020.9 in NE 37.0 mph 37.0 mph 65 % 0.0 in
15:29 5.3 °F -2.0 °F 1020.9 in NE 27.7 mph 37.0 mph 59 % 0.0 in
15:34 5.1 °F -2.0 °F 1020.9 in North 28.5 mph 32.0 mph 58 % 0.0 in
15:39 5.3 °F -1.0 °F 1020.9 in NE 14.0 mph 32.0 mph 61 % 0.0 in
15:44 5.3 °F -2.0 °F 1019.9 in NNE 20.1 mph 32.0 mph 58 % 0.0 in
15:49 5.3 °F -2.0 °F 1019.9 in NE 25.3 mph 31.7 mph 59 % 0.0 in
15:54 4.8 °F -3.0 °F 1019.9 in NE 28.0 mph 39.3 mph 58 % 0.0 in
15:59 4.5 °F -3.0 °F 1019.9 in NNE 36.7 mph 39.3 mph 57 % 0.0 in
16:04 4.4 °F -3.0 °F 1019.9 in NE 24.5 mph 36.7 mph 60 % 0.0 in
16:09 4.5 °F -2.0 °F 1019.9 in NE 24.8 mph 30.2 mph 61 % 0.0 in
16:14 4.5 °F -3.0 °F 1021.9 in NNE 20.1 mph 32.0 mph 59 % 0.0 in
16:20 4.3 °F -3.0 °F 1021.9 in North 21.2 mph 32.8 mph 58 % 0.0 in
16:25 4.3 °F -3.0 °F 1021.9 in NE 17.7 mph 32.8 mph 61 % 0.0 in
16:30 4.1 °F -3.0 °F 1021.9 in NE 28.8 mph 31.7 mph 62 % 0.0 in
16:35 4.0 °F -3.0 °F 1021.9 in NE 17.7 mph 34.3 mph 62 % 0.0 in
16:40 3.9 °F -2.0 °F 1021.9 in ENE 15.1 mph 34.3 mph 63 % 0.0 in
16:45 3.8 °F -3.0 °F 1021.9 in NE 24.5 mph 30.6 mph 62 % 0.0 in
16:50 3.7 °F -3.0 °F 1021.9 in NE 23.0 mph 28.5 mph 62 % 0.0 in
16:55 3.6 °F -3.0 °F 1021.9 in ENE 24.8 mph 27.7 mph 62 % 0.0 in
17:00 3.4 °F -3.0 °F 1021.9 in North 17.2 mph 27.7 mph 64 % 0.0 in
17:05 3.3 °F -3.0 °F 1021.9 in ENE 14.0 mph 25.9 mph 63 % 0.0 in
17:10 3.2 °F -3.0 °F 1021.9 in NE 20.9 mph 32.0 mph 63 % 0.0 in
17:15 3.1 °F -3.0 °F 1021.9 in ENE 16.6 mph 32.0 mph 65 % 0.0 in
17:20 3.1 °F -3.0 °F 1021.9 in NE 23.0 mph 28.0 mph 65 % 0.0 in
17:25 3.0 °F -3.0 °F 1021.9 in NE 16.6 mph 25.3 mph 65 % 0.0 in
17:30 2.8 °F -2.0 °F 1022.9 in NE 19.8 mph 23.3 mph 67 % 0.0 in
17:35 2.8 °F -3.0 °F 1022.9 in NE 19.1 mph 24.8 mph 66 % 0.0 in
17:40 2.7 °F -3.0 °F 1022.9 in NNE 19.8 mph 24.8 mph 67 % 0.0 in
17:45 2.6 °F -3.0 °F 1022.9 in NE 20.9 mph 24.8 mph 67 % 0.0 in
17:50 2.6 °F -2.0 °F 1022.9 in NE 18.3 mph 24.8 mph 68 % 0.0 in
17:55 2.6 °F -2.0 °F 1022.9 in NE 13.7 mph 23.8 mph 68 % 0.0 in
18:00 2.6 °F -2.0 °F 1022.9 in NE 16.9 mph 27.7 mph 68 % 0.0 in
18:05 2.6 °F -2.0 °F 1022.9 in NE 15.1 mph 27.7 mph 69 % 0.0 in
18:11 2.6 °F -2.0 °F 1022.9 in NE 14.8 mph 21.2 mph 69 % 0.0 in
18:16 2.6 °F -2.0 °F 1022.9 in NNE 13.0 mph 19.1 mph 69 % 0.0 in
18:21 2.6 °F -2.0 °F 1022.9 in NE 13.0 mph 20.9 mph 69 % 0.0 in
18:26 2.5 °F -2.0 °F 1022.9 in NE 12.6 mph 20.9 mph 69 % 0.0 in
18:31 2.4 °F -2.0 °F 1021.9 in NNE 14.0 mph 16.6 mph 70 % 0.0 in
18:36 2.2 °F -2.0 °F 1021.9 in NE 10.5 mph 14.0 mph 71 % 0.0 in
18:41 2.1 °F -2.0 °F 1021.9 in NE 10.8 mph 14.0 mph 71 % 0.0 in
18:46 2.1 °F -2.0 °F 1022.9 in NE 9.3 mph 14.0 mph 72 % 0.0 in
18:51 2.0 °F -2.0 °F 1022.9 in NNE 12.6 mph 14.0 mph 72 % 0.0 in
18:56 1.9 °F -2.0 °F 1022.9 in NE 12.6 mph 13.7 mph 74 % 0.0 in
19:01 2.0 °F -2.0 °F 1022.9 in NE 11.9 mph 14.3 mph 74 % 0.0 in
19:06 2.1 °F -2.0 °F 1022.9 in NNE 13.7 mph 14.3 mph 74 % 0.0 in
19:11 2.1 °F -2.0 °F 1022.9 in NNE 12.6 mph 14.8 mph 74 % 0.0 in
19:16 2.0 °F -2.0 °F 1022.9 in NE 13.7 mph 14.8 mph 74 % 0.0 in
19:21 2.0 °F -1.0 °F 1022.9 in NE 13.0 mph 14.0 mph 75 % 0.0 in
19:26 1.7 °F -2.0 °F 1022.9 in NE 10.1 mph 14.0 mph 76 % 0.0 in
19:31 1.7 °F -2.0 °F 1023.9 in NE 9.0 mph 13.7 mph 76 % 0.0 in
19:36 1.6 °F -2.0 °F 1023.9 in NNE 6.4 mph 11.9 mph 77 % 0.0 in
19:41 1.6 °F -2.0 °F 1023.9 in NE 3.2 mph 11.9 mph 77 % 0.0 in
19:46 1.2 °F -2.0 °F 1023.9 in NNE 9.0 mph 9.3 mph 78 % 0.0 in
19:51 1.1 °F -2.0 °F 1023.9 in NNE 10.1 mph 10.1 mph 79 % 0.0 in
19:56 1.0 °F -2.0 °F 1023.9 in NNE 5.8 mph 10.5 mph 79 % 0.0 in
20:01 1.0 °F -2.0 °F 1024.9 in NE 6.9 mph 10.5 mph 80 % 0.0 in
20:06 1.0 °F -2.0 °F 1024.9 in NNE 4.7 mph 9.7 mph 81 % 0.0 in
20:11 1.0 °F -2.0 °F 1024.9 in NNE 5.8 mph 9.7 mph 81 % 0.0 in
20:17 1.1 °F -1.0 °F 1023.9 in NNE 5.8 mph 9.0 mph 82 % 0.0 in
20:22 1.1 °F -1.0 °F 1023.9 in NNE 1.4 mph 9.0 mph 82 % 0.0 in
20:26 1.1 °F -1.0 °F 1023.9 in NNE 5.5 mph 6.9 mph 82 % 0.0 in
20:32 1.1 °F -1.0 °F 1024.9 in NE 5.8 mph 6.9 mph 82 % 0.0 in
20:37 1.1 °F -1.0 °F 1024.9 in NNE 6.1 mph 9.3 mph 82 % 0.0 in
20:42 1.1 °F -1.0 °F 1024.9 in NE 5.5 mph 9.7 mph 82 % 0.0 in
20:47 1.1 °F -1.0 °F 1024.9 in NNE 5.5 mph 9.7 mph 82 % 0.0 in
20:52 1.1 °F -1.0 °F 1024.9 in NE 2.6 mph 7.6 mph 82 % 0.0 in
20:57 1.1 °F -1.0 °F 1024.9 in NNW 6.1 mph 6.9 mph 82 % 0.0 in
21:02 1.1 °F -1.0 °F 1024.9 in NE 6.4 mph 6.9 mph 82 % 0.0 in
21:07 1.1 °F -1.0 °F 1024.9 in NNE 5.5 mph 6.9 mph 82 % 0.0 in
21:12 1.0 °F -1.0 °F 1024.9 in NNW 2.1 mph 6.1 mph 82 % 0.0 in
21:17 1.0 °F -1.0 °F 1024.9 in NE 3.5 mph 6.9 mph 82 % 0.0 in
21:22 1.0 °F -1.0 °F 1024.9 in NNE 1.8 mph 6.9 mph 82 % 0.0 in
21:27 1.0 °F -1.0 °F 1024.9 in North 9.0 mph 9.0 mph 82 % 0.0 in
21:32 1.2 °F -1.0 °F 1024.9 in NNW 6.4 mph 9.0 mph 84 % 0.0 in
21:37 1.2 °F -1.0 °F 1024.9 in NNE 2.1 mph 9.3 mph 84 % 0.0 in
21:42 1.2 °F -1.0 °F 1024.9 in North 5.0 mph 9.3 mph 84 % 0.0 in
21:47 1.3 °F -1.0 °F 1024.9 in Calm   9.0 mph 84 % 0.0 in
21:53 1.3 °F -1.0 °F 1024.9 in NNE 6.4 mph 9.0 mph 84 % 0.0 in
21:58 1.3 °F -1.0 °F 1024.9 in NE 6.4 mph 10.1 mph 84 % 0.0 in
22:03 1.6 °F 0.0 °F 1024.9 in NNE 7.9 mph 10.5 mph 86 % 0.0 in
22:08 1.6 °F 0.0 °F 1024.9 in NE 4.0 mph 10.5 mph 86 % 0.0 in
22:13 1.6 °F 0.0 °F 1024.9 in NE 12.6 mph 12.6 mph 86 % 0.0 in
22:18 1.6 °F 0.0 °F 1024.9 in NE 9.0 mph 12.6 mph 86 % 0.0 in
22:23 1.6 °F 0.0 °F 1024.9 in North 8.7 mph 13.0 mph 86 % 0.0 in
22:28 1.6 °F 0.0 °F 1024.9 in North 9.7 mph 13.0 mph 86 % 0.0 in
22:33 1.9 °F 0.0 °F 1024.9 in NNE 11.1 mph 13.7 mph 88 % 0.0 in
22:38 1.9 °F 0.0 °F 1024.9 in NE 6.4 mph 13.7 mph 88 % 0.0 in
22:43 1.9 °F 0.0 °F 1024.9 in ENE 9.7 mph 16.3 mph 88 % 0.0 in
22:48 1.9 °F 0.0 °F 1023.9 in NE 14.0 mph 16.3 mph 88 % 0.0 in
22:53 2.1 °F 1.0 °F 1023.9 in NE 16.3 mph 19.1 mph 90 % 0.0 in
22:58 2.2 °F 1.0 °F 1023.9 in NNE 14.0 mph 19.1 mph 90 % 0.0 in
23:03 2.2 °F 1.0 °F 1023.9 in ENE 14.0 mph 17.7 mph 90 % 0.0 in
23:08 2.3 °F 1.0 °F 1023.9 in ENE 14.0 mph 21.6 mph 90 % 0.0 in
23:13 2.3 °F 1.0 °F 1023.9 in NE 10.5 mph 21.6 mph 90 % 0.0 in
23:19 2.3 °F 1.0 °F 1023.9 in East 11.6 mph 14.0 mph 90 % 0.0 in
23:24 2.3 °F 1.0 °F 1023.9 in ENE 10.1 mph 13.0 mph 90 % 0.0 in
23:29 2.3 °F 1.0 °F 1023.9 in NE 8.7 mph 11.9 mph 90 % 0.0 in
23:34 2.3 °F 1.0 °F 1023.9 in East 8.7 mph 13.7 mph 90 % 0.0 in
23:39 2.3 °F 1.0 °F 1023.9 in ENE 5.8 mph 13.7 mph 90 % 0.0 in
23:44 2.3 °F 1.0 °F 1023.9 in ENE 8.7 mph 11.6 mph 90 % 0.0 in
23:49 2.3 °F 1.0 °F 1023.9 in NE 7.6 mph 11.6 mph 90 % 0.0 in
23:54 2.3 °F 1.0 °F 1023.9 in East 8.7 mph 13.0 mph 90 % 0.0 in
23:59 2.3 °F 1.0 °F 1024.9 in NE 13.7 mph 13.7 mph 90 % 0.0 in
Le Gheer Warneton
Courtoisie de Weather Underground - 2.25 mb

Mise a jour : 24/02/2018 15:15:11
Généré par Cumulus 1.9.4 (1099)